TimeEST,TemperatureF,Dew PointF,Humidity,Sea Level PressureIn,VisibilityMPH,Wind Direction,Wind SpeedMPH,Gust SpeedMPH,PrecipitationIn,Events,Conditions,WindDirDegrees,DateUTC
12:52 AM,39.0,26.1,60,30.26,10.0,South,9.2,-,N/A,,Overcast,190,2012-11-30 05:52:00
1:52 AM,39.0,26.1,60,30.26,10.0,South,9.2,-,N/A,,Overcast,190,2012-11-30 06:52:00
2:52 AM,37.9,26.1,62,30.25,10.0,South,4.6,-,N/A,,Overcast,180,2012-11-30 07:52:00
3:52 AM,37.9,26.1,62,30.24,10.0,SSE,9.2,-,N/A,,Scattered Clouds,160,2012-11-30 08:52:00
4:52 AM,37.0,26.1,65,30.23,10.0,SSE,6.9,-,N/A,,Partly Cloudy,160,2012-11-30 09:52:00
5:52 AM,36.0,26.1,67,30.24,10.0,South,5.8,-,N/A,,Clear,180,2012-11-30 10:52:00
6:52 AM,37.0,26.1,65,30.23,10.0,South,8.1,-,N/A,,Clear,180,2012-11-30 11:52:00
7:52 AM,36.0,26.1,67,30.24,10.0,South,9.2,-,N/A,,Clear,190,2012-11-30 12:52:00
8:52 AM,39.0,27.0,62,30.23,10.0,South,6.9,-,N/A,,Clear,190,2012-11-30 13:52:00
9:52 AM,44.1,28.9,55,30.24,10.0,South,8.1,-,N/A,,Clear,180,2012-11-30 14:52:00
10:52 AM,46.9,30.0,52,30.22,10.0,South,11.5,-,N/A,,Clear,180,2012-11-30 15:52:00
11:52 AM,50.0,28.9,44,30.20,10.0,SSW,8.1,-,N/A,,Clear,200,2012-11-30 16:52:00
12:52 PM,51.1,28.0,41,30.18,10.0,SW,6.9,-,N/A,,Clear,230,2012-11-30 17:52:00
1:52 PM,50.0,28.9,44,30.17,10.0,SSW,10.4,-,N/A,,Mostly Cloudy,210,2012-11-30 18:52:00
2:52 PM,51.1,30.0,44,30.17,10.0,SW,8.1,-,N/A,,Mostly Cloudy,220,2012-11-30 19:52:00
3:52 PM,52.0,32.0,47,30.17,10.0,South,9.2,-,N/A,,Overcast,190,2012-11-30 20:52:00
4:52 PM,50.0,32.0,50,30.17,10.0,South,6.9,-,N/A,,Overcast,180,2012-11-30 21:52:00
5:52 PM,48.0,32.0,54,30.19,10.0,SSW,4.6,-,N/A,,Overcast,210,2012-11-30 22:52:00
6:52 PM,48.0,32.0,54,30.20,10.0,Calm,Calm,-,N/A,,Overcast,0,2012-11-30 23:52:00
7:52 PM,45.0,32.0,60,30.21,10.0,South,4.6,-,N/A,,Mostly Cloudy,170,2012-12-01 00:52:00
8:52 PM,46.0,33.1,61,30.22,10.0,Calm,Calm,-,N/A,,Overcast,0,2012-12-01 01:52:00
9:52 PM,44.1,34.0,68,30.22,10.0,SSE,6.9,-,N/A,,Overcast,160,2012-12-01 02:52:00
10:52 PM,42.1,33.1,70,30.23,10.0,South,4.6,-,N/A,,Clear,180,2012-12-01 03:52:00
11:52 PM,41.0,34.0,76,30.22,10.0,South,5.8,-,N/A,,Clear,170,2012-12-01 04:52:00